Location: Mountain View
(37.3861°N, 122.0839°W)
Time: 15:24:07
(UTC-07:00)

Envisat - Pass Details

Date: 15 May 2026
Orbit: 761 x 763 km, 98.4° (Epoch: 7 June)

Event Time Altitude Azimuth Distance (km) Brightness Sun altitude
Rises 05:15:48 0° 350° (N) 3,229 6.5 -8.4°
Reaches altitude 10° 05:19:33 10° 321° (NW) 2,298 5.4 -7.8°
Maximum altitude 05:21:29 12° 298° (WNW) 2,144 5.0 -7.5°
Drops below altitude 10° 05:23:25 10° 276° (W) 2,292 5.0 -7.1°
Enters shadow 05:24:59 - 261° (W) 2,602 5.2 -6.9°
